Weather History for Medicine Lodge, KS

Change the Weather History Date:

Tuesday, September 3, 2013

  Actual Average Record
Temperature  
Mean Temperature 74 °F 76 °F  
Max Temperature 91 °F 89 °F 112 °F (1939)
Min Temperature 57 °F 64 °F 40 °F (1974)
Degree Days  
Heating Degree Days 0 0  
Month to date heating degree days 0 0  
Since 1 July heating degree days 0 0  
Cooling Degree Days 9 11  
Month to date cooling degree days 35 34  
Year to date cooling degree days 1484 1545  
Growing Degree Days 24 (Base 50)    
Moisture  
Dew Point 55 °F    
Average Humidity 58    
Maximum Humidity 86    
Minimum Humidity 29    
Precipitation  
Precipitation 0.00 in 0.08 in 1.41 in (1963)
Month to date precipitation 0.00 0.25  
Year to date precipitation 21.64 20.60  
Snow  
Snow 0.00 in 0.00 in - ()
Month to date snowfall 0.0 0.0  
Since 1 July snowfall 0.0 0.0  
Since 1 September snowfall 0.0 0.0  
Snow Depth 0.00 in    
Sea Level Pressure  
Sea Level Pressure 30.03 in    
Wind  
Wind Speed 4 mph (SE)    
Max Wind Speed 10 mph    
Max Gust Speed 14 mph    
T = Trace of Precipitation, MM = Missing Value Source: NWS Daily Summary

Daily Weather History Graph

Daily Weather History Graph

Search for Another Location

Airport:

Trip Planner

Search our weather history database for the weather conditions in past years. The results will help you decide how hot, cold, wet, or windy it might be!

Date:

Astronomy

Sep. 03, 2013 Rise Set
Actual Time 7:06 AM CDT 7:59 PM CDT
Civil Twilight 6:40 AM CDT 8:26 PM CDT
Nautical Twilight 6:08 AM CDT 8:57 PM CDT
Astronomical Twilight 5:36 AM CDT 9:29 PM CDT
Moon 5:23 AM CDT (9/3) 6:47 PM CDT (9/3)
Length of Visible Light 13h 46m
Length of Day
12h 52m
Waning Crescent, 3% of the Moon is Illuminated
Sep 3
Waning Crescent
Sep 5
New
Sep 12
First Quarter
Sep 19
Full
Sep 26
Last Quarter

Hourly Weather History & Observations

Time (CDT) Temp. Heat Index Dew Point Humidity Pressure Visibility Wind Dir Wind Speed Gust Speed Precip Events Conditions
12:56 AM 66.0 °F - 55.0 °F 68% 30.03 in - Calm Calm - N/A   Unknown
1:56 AM 62.1 °F - 55.0 °F 78% 30.04 in - Calm Calm - N/A   Unknown
2:56 AM 62.1 °F - 55.0 °F 78% 30.03 in - Calm Calm - N/A   Unknown
3:56 AM 61.0 °F - 55.0 °F 81% 30.03 in - Calm Calm - N/A   Unknown
4:56 AM 60.1 °F - 55.0 °F 83% 30.04 in - Calm Calm - N/A   Unknown
5:56 AM 57.9 °F - 54.0 °F 87% 30.05 in - Calm Calm - N/A   Unknown
6:56 AM 57.0 °F - 54.0 °F 89% 30.06 in - Calm Calm - N/A   Unknown
7:56 AM 60.1 °F - 55.0 °F 83% 30.08 in - Calm Calm - N/A   Unknown
8:56 AM 66.9 °F - 57.9 °F 73% 30.09 in - Calm Calm - N/A   Unknown
9:56 AM 73.0 °F - 57.9 °F 59% 30.09 in - SSW 6.9 mph - N/A   Unknown
10:56 AM 77.0 °F - 59.0 °F 54% 30.08 in - SSW 5.8 mph - N/A   Unknown
11:56 AM 80.1 °F 80.6 °F 57.9 °F 47% 30.07 in - Variable 5.8 mph - N/A   Unknown
12:56 PM 82.9 °F 82.4 °F 57.0 °F 41% 30.05 in - South 3.5 mph - N/A   Unknown
1:56 PM 84.9 °F 83.3 °F 54.0 °F 34% 30.04 in - Calm Calm - N/A   Unknown
2:56 PM 88.0 °F 86.1 °F 55.0 °F 32% 30.01 in - North - - N/A   Unknown
3:56 PM 90.0 °F 87.5 °F 53.1 °F 28% 29.99 in - South 6.9 mph - N/A   Unknown
4:56 PM 89.1 °F 86.7 °F 53.1 °F 29% 29.98 in - Variable 5.8 mph - N/A   Unknown
5:56 PM 88.0 °F 85.7 °F 53.1 °F 30% 29.98 in - SE 6.9 mph - N/A   Unknown
6:56 PM 87.1 °F - 52.0 °F 30% 29.97 in - SE 6.9 mph - N/A   Unknown
7:56 PM 84.0 °F 82.6 °F 54.0 °F 35% 29.98 in - ESE 4.6 mph - N/A   Unknown
8:56 PM 80.1 °F 80.2 °F 55.9 °F 43% 29.98 in - ESE 5.8 mph - N/A   Unknown
9:56 PM 78.1 °F - 55.0 °F 45% 30.00 in - ESE 5.8 mph - N/A   Unknown
10:56 PM 73.9 °F - 55.9 °F 53% 30.02 in - ESE 4.6 mph - N/A   Unknown
11:56 PM 72.0 °F - 57.0 °F 59% 30.03 in - ESE 5.8 mph - N/A   Unknown